EST,Max TemperatureF,Mean TemperatureF,Min TemperatureF,Max Dew PointF,MeanDew PointF,Min DewpointF,Max Humidity, Mean Humidity, Min Humidity, Max Sea Level PressureIn, Mean Sea Level PressureIn, Min Sea Level PressureIn, Max VisibilityMiles, Mean VisibilityMiles, Min VisibilityMiles, Max Wind SpeedMPH, Mean Wind SpeedMPH, Max Gust SpeedMPH,PrecipitationIn, CloudCover, Events, WindDirDegrees
2014-2-1,44,36,28,27,23,19,89,64,38,30.35,30.23,30.05,10,10,8,12,2,,0.00,2,,156
2014-2-2,52,41,30,38,32,27,97,81,49,30.09,29.94,29.89,10,6,0,12,1,,0.00,5,Fog-Rain,284
2014-2-3,37,27,17,32,26,15,96,86,68,30.30,30.19,30.09,10,3,0,12,5,,0.22,7,Fog-Snow,5
2014-2-4,34,22,10,23,16,6,92,81,56,30.47,30.37,30.29,10,6,0,6,2,,0.00,0,Fog,35
2014-2-5,33,28,24,31,26,21,92,88,81,30.29,29.89,29.62,10,3,0,14,6,23,0.87,8,Fog-Rain-Snow,21
2014-2-6,28,20,12,21,11,6,88,68,41,30.28,30.19,29.96,10,10,7,10,5,,0.00,2,Snow,332
2014-2-7,30,16,1,12,6,-2,84,68,40,30.30,30.24,30.20,10,9,6,8,2,,0.00,0,,242
2014-2-8,28,14,0,12,2,-7,84,58,28,30.33,30.24,30.13,10,9,6,8,2,,0.00,2,,283
2014-2-9,30,20,10,20,13,4,92,68,35,30.18,30.06,29.96,10,6,1,8,2,,0.05,5,Snow,197
2014-2-10,27,18,3,19,9,-3,92,62,36,30.26,30.06,29.94,10,9,5,16,5,23,0.01,1,,299
2014-2-11,24,10,-5,4,-2,-11,80,58,37,30.46,30.34,30.26,10,9,5,15,4,25,0.00,0,,331
2014-2-12,27,9,-9,13,-1,-15,76,57,27,30.58,30.49,30.36,10,10,6,7,2,,0.00,2,,42
2014-2-13,35,29,23,32,25,16,92,85,71,30.35,29.84,29.02,10,3,0,24,9,36,0.76,8,Fog-Rain-Snow,30
2014-2-14,39,32,23,32,26,20,92,80,55,29.77,29.15,28.89,10,6,1,18,9,34,0.16,6,Rain-Snow,299
2014-2-15,35,27,19,28,25,16,93,85,61,29.85,29.67,29.53,9,3,0,17,6,24,0.11,7,Fog-Snow,16
2014-2-16,30,26,19,21,10,5,68,53,40,30.02,29.83,29.57,10,10,9,17,11,30,0.00,3,,299
2014-2-17,28,16,5,3,-2,-5,76,43,24,30.37,30.27,30.04,10,10,9,17,8,22,0.00,0,,324
2014-2-18,30,16,3,28,17,-3,92,81,60,30.36,30.09,29.92,10,5,0,12,4,,0.21,5,Fog-Snow,18
2014-2-19,37,21,5,36,28,1,100,90,78,30.14,29.83,29.70,9,4,0,7,2,,0.29,6,Fog-Rain,347
2014-2-20,48,36,24,33,25,16,100,71,28,30.23,30.14,29.94,10,7,0,14,5,22,0.13,2,Fog-Rain,219
2014-2-21,43,38,32,41,35,30,100,93,85,30.10,29.88,29.69,10,4,0,10,4,16,0.11,7,Fog-Rain-Thunderstorm,12
2014-2-22,50,37,24,30,24,19,100,71,29,30.02,29.95,29.90,10,6,0,21,2,32,0.00,0,Fog,214
2014-2-23,51,38,25,29,26,22,89,67,33,30.02,29.92,29.80,10,10,9,6,1,,0.00,3,,271
2014-2-24,42,33,23,29,12,4,73,45,32,30.02,29.87,29.78,10,10,10,20,9,32,0.00,3,,294
2014-2-25,28,22,16,15,6,3,63,51,41,30.04,29.98,29.90,10,10,10,16,6,21,0.00,3,,278
2014-2-26,28,18,7,8,2,-8,80,55,30,29.97,29.88,29.79,10,10,9,14,4,23,0.00,2,,316
2014-2-27,28,14,1,18,4,-10,75,56,33,29.99,29.76,29.60,10,8,1,22,6,32,0.00,4,Snow,264
2014-2-28,21,14,5,-2,-7,-12,70,41,23,30.45,30.31,30.04,10,10,9,15,8,23,0.00,0,,308